[[{"header":{"parameterUnit":"m.s-1","parameterCategory":1,"la1":30.2991,"la2":30.254,"lo1":-89.0895,"lo2":-89.0444,"dy":0.0017,"dx":0.0017,"nx":28,"ny":28,"refTime":"2023-10-28T21:00:00:Z","depth":0,"parameterNumber":2,"parameterNumberName":"U-component_of_WINDS"},"data":[0,0,0,0,0,0,0,0,0,0,0,0,0,0,0,0,0,0,0,0,0,0,0,0,0,0,0,0,0,0,0,0,0,0,0,0,0,0,0,0,0,0,0,0,0,0,0,0,0,0,0,0,0,0,0,0,0,0,-3.3103,-3.3103,0,-3.3133,-3.3133,-3.3134,-3.3085,-3.3083,-3.3081,-3.308,-3.311,-3.3112,-3.3114,0,0,0,0,0,0,0,0,0,0,0,0,0,-3.3006,-3.3008,-3.3103,-3.3103,-3.3104,-3.3133,-3.3133,-3.3134,-3.3085,-3.3083,-3.3081,-3.3079,-3.3109,-3.3112,-3.3115,0,0,0,0,0,0,0,0,0,0,0,0,0,-3.3043,-3.3008,-3.3103,-3.3083,-3.3081,-3.3133,-3.3133,-3.3134,-3.3086,-3.3083,-3.3081,-3.3078,-3.3108,-3.3111,-3.3115,-3.3187,0,0,-3.3126,-3.3127,0,0,0,0,0,0,0,0,-3.3041,-3.3047,-3.3085,-3.3084,-3.3083,-3.3103,-3.311,-3.3152,-3.3086,-3.3084,-3.308,-3.3077,-3.3109,-3.3113,-3.3124,-3.3188,-3.319,-3.3126,-3.3128,-3.313,-3.3131,0,0,0,0,0,0,0,-3.3038,-3.3045,-3.3115,-3.3086,-3.3085,-3.3073,-3.3076,-3.3118,-3.311,-3.3084,-3.308,-3.3085,-3.3108,-3.312,-3.3124,-3.319,-3.3126,-3.3129,-3.3131,-3.3133,-3.3319,-3.3322,0,0,0,0,0,0,-3.3038,-3.3043,-3.3114,-3.3116,-3.3055,-3.3077,-3.308,-3.3099,-3.311,-3.3109,-3.3087,-3.3082,-3.3116,-3.312,-3.3125,-3.3211,-3.313,-3.3133,-3.3135,-3.3316,-3.332,-3.3323,0,0,0,0,0,0,-3.3036,-3.3045,-3.3113,-3.3079,-3.3086,-3.3082,-3.3103,-3.3101,-3.3113,-3.3112,-3.311,-3.3101,-3.3114,-3.312,-3.3173,-3.3211,-3.3135,-3.3138,-3.3313,-3.3317,-3.3321,-3.3383,0,0,0,0,0,0,-3.3034,-3.3045,-3.3071,-3.308,-3.3088,-3.3159,-3.3105,-3.3103,-3.3119,-3.3114,-3.3124,-3.3124,-3.3112,-3.3168,-3.3176,-3.3215,-3.3141,-3.3309,-3.3315,-3.332,-3.3378,-3.3389,-3.3399,0,0,0,0,0,-3.303,-3.3086,-3.3072,-3.3081,-3.3121,-3.3161,-3.3166,-3.3152,-3.3122,-3.3149,-3.315,-3.3123,-3.3207,-3.3174,-3.3183,-3.3223,-3.3307,-3.3313,-3.3319,-3.3373,-3.3387,-3.3399,0,0,0,0,0,0,-3.308,-3.3086,-3.3071,-3.3131,-3.3147,-3.3153,-3.3186,-3.3167,-3.319,-3.3184,-3.3166,-3.3169,-3.3226,-3.323,-3.3193,-3.3295,-3.3252,-3.326,-3.3289,-3.3303,-3.3313,-3.3309,-3.3143,0,0,0,0,0,-3.3098,-3.313,-3.3134,-3.3187,-3.3196,-3.319,-3.3207,-3.3196,-3.321,-3.3216,-3.322,-3.3235,-3.3265,-3.3284,-3.3312,-3.338,-3.3382,-3.3412,-3.3423,-3.3432,-3.3438,-3.3477,-3.3491,-3.3344,-3.3344,-3.3343,0,0,-3.3135,-3.3143,-3.3163,-3.3197,-3.3207,-3.3242,-3.3195,-3.3233,-3.3258,-3.3221,-3.3271,-3.3276,-3.3292,-3.3353,-3.338,-3.3358,-3.3481,-3.344,-3.3447,-3.3449,-3.3485,-3.3499,-3.3511,-3.3348,-3.3347,-3.3346,0,0,-3.3219,-3.3229,-3.3274,-3.3287,-3.3304,-3.3301,-3.3313,-3.3324,-3.3325,-3.3376,-3.335,-3.3381,-3.3432,-3.3446,-3.3459,-3.3556,-3.3533,-3.3566,-3.362,-3.3658,-3.3669,-3.3679,-3.3714,-3.3727,-3.3573,-3.3573,-3.3573,0,-3.3263,-3.3313,-3.33,-3.3341,-3.3357,-3.3329,-3.3376,-3.3388,-3.3413,-3.3426,-3.3402,-3.3468,-3.3477,-3.3542,-3.3566,-3.3578,-3.3592,-3.3562,-3.3669,-3.3679,-3.3688,-3.3721,-3.3734,-3.3577,-3.3577,-3.3576,-3.3576,0,-3.3366,-3.3402,-3.3437,-3.3464,-3.3485,-3.3528,-3.3524,-3.3547,-3.3536,-3.3536,-3.359,-3.3601,-3.363,-3.3646,-3.3634,-3.3711,-3.3697,-3.3672,-3.3627,-3.3706,-3.3737,-3.3749,-3.3583,-3.3581,-3.358,-3.3579,0,0,-3.3476,-3.35,-3.3513,-3.3526,-3.3546,-3.3574,-3.3618,-3.3649,-3.367,-3.369,-3.3727,-3.3774,-3.3752,-3.3768,-3.3758,-3.3792,-3.3869,-3.3762,-3.3763,-3.3781,-3.3955,-3.3973,-3.3987,-3.3856,-3.3859,-3.386,-3.3954,0,-3.356,-3.3636,-3.3629,-3.3701,-3.3735,-3.3712,-3.3751,-3.3768,-3.3771,-3.3801,-3.3805,-3.3838,-3.3807,-3.3816,-3.3849,-3.3853,-3.3904,-3.3846,-3.389,-3.3892,-3.3884,-3.4003,-3.4021,-3.4108,-3.3966,-3.3968,-3.3969,0,-3.3666,-3.3692,-3.3769,-3.3787,-3.3801,-3.3836,-3.3866,-3.3895,-3.3916,-3.3916,-3.3937,-3.3923,-3.3969,-3.3927,-3.3992,-3.3953,-3.3971,-3.3977,-3.398,-3.3981,-3.3933,-3.4006,-3.4136,-3.4148,-3.3988,-3.3986,-3.3985,0,-3.3739,-3.3793,-3.3846,-3.3859,-3.3882,-3.3907,-3.3918,-3.3936,-3.3957,-3.3984,-3.3997,-3.4029,-3.4046,-3.4072,-3.4068,-3.4038,-3.4134,-3.4091,-3.4136,-3.4136,-3.4154,-3.4152,-3.4286,-3.417,-3.4169,-3.4169,-3.4169,0,-3.3831,-3.3878,-3.388,-3.3912,-3.3966,-3.3959,-3.4013,-3.4021,-3.4039,-3.4073,-3.4056,-3.4089,-3.4083,-3.4117,-3.4115,-3.4169,-3.4177,-3.4179,-3.4177,-3.4179,-3.4179,-3.4188,-3.4181,-3.4173,-3.4172,-3.4171,-3.4171,0,-3.3919,-3.3921,-3.3978,-3.3997,-3.4004,-3.4042,-3.4059,-3.4091,-3.4095,-3.4139,-3.4149,-3.4156,-3.4195,-3.4195,-3.4239,-3.4238,-3.4305,-3.4297,-3.4297,-3.4295,-3.4339,-3.4335,-3.4482,-3.4501,-3.4374,-3.4375,-3.4376,0,-3.3976,-3.4013,-3.4037,-3.406,-3.4073,-3.4109,-3.4131,-3.4128,-3.4152,-3.4182,-3.421,-3.4249,-3.4278,-3.4343,-3.4351,-3.4386,-3.4378,-3.4428,-3.4383,-3.4385,-3.4378,-3.4375,-3.4379,-3.4435,-3.4437,-3.4438,-3.4439,0,-3.4078,-3.4079,-3.4111,-3.4146,-3.4173,-3.42,-3.4225,-3.4245,-3.4245,-3.4273,-3.4314,-3.4337,-3.4385,-3.4423,-3.4458,-3.447,-3.4455,-3.4454,-3.4466,-3.4467,-3.4465,-3.4466,-3.4319,-3.4449,-3.4448,-3.4448,-3.4447,-3.4447,-3.4152,-3.4184,-3.4207,-3.4245,-3.4265,-3.429,-3.4321,-3.4331,-3.4365,-3.4404,-3.4401,-3.4447,-3.4471,-3.4517,-3.4533,-3.4569,-3.4552,-3.4569,-3.4573,-3.4577,-3.4582,-3.4462,-3.4576,-3.4575,-3.4575,-3.4575,-3.4575,0,-3.4252,-3.4268,-3.4303,-3.4339,-3.437,-3.4357,-3.4385,-3.4411,-3.4452,-3.4476,-3.4508,-3.4557,-3.4595,-3.461,-3.4648,-3.4675,-3.4669,-3.4685,-3.4681,-3.4685,-3.4595,-3.458,-3.4689,-3.4689,-3.4689,-3.4689,-3.4689,-3.4689,-3.4307,-3.4362,-3.4367,-3.4433,-3.4448,-3.4493,-3.4511,-3.4535,-3.4554,-3.461,-3.4643,-3.4653,-3.4674,-3.4715,-3.475,-3.4754,-3.4768,-3.4787,-3.4787,-3.4702,-3.4691,-3.4679,-3.4666,-3.479,-3.479,-3.4873,-3.4874,-3.4875]},{"header":{"parameterUnit":"m.s-1","parameterCategory":1,"la1":30.2991,"la2":30.254,"lo1":-89.0895,"lo2":-89.0444,"dy":0.0017,"dx":0.0017,"nx":28,"ny":28,"refTime":"2023-10-28T21:00:00:Z","depth":0,"parameterNumber":3,"parameterNumberName":"V-component_of_WINDS"},"data":[0,0,0,0,0,0,0,0,0,0,0,0,0,0,0,0,0,0,0,0,0,0,0,0,0,0,0,0,0,0,0,0,0,0,0,0,0,0,0,0,0,0,0,0,0,0,0,0,0,0,0,0,0,0,0,0,0,0,2.1054,2.1054,0,2.1081,2.1082,2.1082,2.1075,2.1074,2.1074,2.1073,2.1096,2.1097,2.1098,0,0,0,0,0,0,0,0,0,0,0,0,0,2.0992,2.0993,2.1054,2.1054,2.1054,2.1081,2.1082,2.1082,2.1075,2.1074,2.1074,2.1073,2.1096,2.1097,2.1098,0,0,0,0,0,0,0,0,0,0,0,0,0,2.1019,2.0994,2.1053,2.1054,2.1055,2.1081,2.1082,2.1082,2.1075,2.1074,2.1073,2.1073,2.1095,2.1097,2.1098,2.1124,0,0,2.1103,2.1104,0,0,0,0,0,0,0,0,2.1018,2.1021,2.1054,2.1054,2.1055,2.1074,2.1068,2.1096,2.1075,2.1067,2.1073,2.1072,2.1089,2.1091,2.1098,2.1125,2.1126,2.1104,2.1105,2.1105,2.1106,0,0,0,0,0,0,0,2.1016,2.102,2.1064,2.1054,2.1055,2.1052,2.1055,2.1074,2.1082,2.1068,2.1067,2.1071,2.1089,2.1096,2.1098,2.1127,2.1104,2.1105,2.1106,2.1107,2.1181,2.1182,0,0,0,0,0,0,2.1014,2.1019,2.1063,2.1065,2.1034,2.1054,2.1057,2.1068,2.1082,2.1083,2.1072,2.1071,2.1094,2.1096,2.1099,2.1133,2.1105,2.1107,2.1108,2.118,2.1181,2.1182,0,0,0,0,0,0,2.1013,2.1018,2.1062,2.1042,2.1047,2.1056,2.1068,2.1069,2.1077,2.1085,2.1086,2.1078,2.1093,2.1097,2.1119,2.1133,2.1108,2.1109,2.1179,2.118,2.1182,2.1198,0,0,0,0,0,0,2.1011,2.1018,2.1028,2.1042,2.1049,2.1083,2.1069,2.1071,2.108,2.1079,2.1091,2.1092,2.1093,2.1117,2.1121,2.1135,2.111,2.1178,2.118,2.1181,2.1197,2.12,2.1203,0,0,0,0,0,2.1009,2.1029,2.1028,2.1034,2.1062,2.1084,2.1087,2.109,2.1081,2.1092,2.1098,2.1091,2.1131,2.1119,2.1124,2.1138,2.1177,2.1179,2.1181,2.1195,2.1199,2.1203,0,0,0,0,0,0,2.1013,2.1031,2.103,2.1056,2.1069,2.1082,2.1095,2.1094,2.1107,2.1105,2.1106,2.1109,2.1133,2.1138,2.1124,2.1166,2.1153,2.1156,2.1162,2.1166,2.1169,2.1167,2.1112,0,0,0,0,0,2.1017,2.1035,2.1049,2.1071,2.1078,2.1086,2.1095,2.1097,2.1109,2.1114,2.1121,2.1132,2.1148,2.1157,2.1171,2.1198,2.1201,2.1211,2.1214,2.1217,2.1219,2.1236,2.1241,2.119,2.119,2.119,0,0,2.1025,2.1038,2.1048,2.1072,2.1082,2.11,2.109,2.1108,2.1122,2.1116,2.1139,2.1145,2.1157,2.1183,2.1195,2.1188,2.1235,2.122,2.1222,2.1222,2.1239,2.1244,2.1248,2.1191,2.1191,2.1191,0,0,2.1049,2.106,2.1081,2.1093,2.1109,2.1115,2.1121,2.1136,2.1141,2.1165,2.1162,2.1177,2.1203,2.1213,2.1221,2.1256,2.1251,2.126,2.1277,2.1294,2.1298,2.1301,2.1314,2.1319,2.1263,2.1263,2.1263,0,2.1056,2.1085,2.1091,2.1112,2.1123,2.1123,2.1144,2.1154,2.1173,2.1181,2.1174,2.121,2.1218,2.1247,2.1256,2.1263,2.1269,2.1258,2.1297,2.1301,2.1304,2.1317,2.1321,2.1264,2.1264,2.1264,2.1263,0,2.1094,2.1114,2.1129,2.1152,2.1165,2.1185,2.1194,2.1207,2.1209,2.1216,2.1241,2.1252,2.127,2.1277,2.1277,2.1308,2.1303,2.1297,2.1283,2.131,2.1322,2.1327,2.1265,2.1265,2.1265,2.1264,0,0,2.1117,2.1148,2.1153,2.1165,2.1186,2.1201,2.1223,2.1243,2.1255,2.1269,2.1288,2.1312,2.1308,2.1318,2.1319,2.1334,2.1363,2.1326,2.1326,2.1333,2.1399,2.1403,2.1409,2.1361,2.1362,2.1362,2.1398,0,2.1144,2.1184,2.1193,2.1227,2.1246,2.1249,2.1268,2.1283,2.1291,2.1308,2.1316,2.1334,2.1326,2.1333,2.1348,2.1356,2.1376,2.1354,2.1377,2.1378,2.1374,2.1415,2.1419,2.1452,2.1402,2.1403,2.1404,0,2.1179,2.1199,2.1237,2.1259,2.1267,2.1285,2.1306,2.1323,2.134,2.1346,2.1359,2.1361,2.1384,2.1371,2.1403,2.1388,2.1398,2.1404,2.1405,2.1407,2.1392,2.1417,2.1462,2.1467,2.1411,2.141,2.141,0,2.1195,2.123,2.1258,2.1268,2.1294,2.1307,2.1318,2.1335,2.1349,2.1367,2.1376,2.1396,2.1407,2.1422,2.1429,2.1419,2.1461,2.1448,2.1466,2.1466,2.1473,2.1472,2.152,2.1481,2.1481,2.148,2.148,0,2.1223,2.1246,2.1266,2.1283,2.1309,2.1319,2.1345,2.1356,2.1372,2.1391,2.1394,2.1411,2.142,2.1439,2.1444,2.1471,2.1475,2.148,2.1481,2.148,2.1479,2.1486,2.1484,2.1482,2.1481,2.1481,2.1481,0,2.1243,2.1257,2.1288,2.1313,2.1319,2.1338,2.1358,2.1375,2.1385,2.141,2.1416,2.1431,2.1454,2.1463,2.149,2.1494,2.1525,2.1524,2.152,2.152,2.1537,2.1536,2.159,2.1598,2.1554,2.1554,2.1554,0,2.126,2.1279,2.1307,2.1321,2.1334,2.1356,2.1371,2.1383,2.1398,2.1423,2.1437,2.1461,2.148,2.1517,2.1529,2.1551,2.155,2.1568,2.1553,2.1553,2.1552,2.155,2.1553,2.157,2.1571,2.1571,2.1572,0,2.1289,2.1297,2.1319,2.1346,2.1364,2.1385,2.1404,2.1416,2.143,2.1447,2.1473,2.1489,2.1519,2.1543,2.1566,2.1576,2.1577,2.1577,2.1582,2.158,2.1578,2.158,2.1527,2.1575,2.1575,2.1574,2.1574,2.1574,2.1309,2.1327,2.1351,2.1376,2.1394,2.1413,2.1432,2.1446,2.1468,2.1495,2.1501,2.1528,2.1549,2.158,2.1593,2.1614,2.1609,2.1616,2.1618,2.162,2.1621,2.1575,2.1618,2.1618,2.1618,2.1617,2.1617,0,2.1339,2.1356,2.138,2.141,2.1431,2.1433,2.1456,2.1473,2.1498,2.1518,2.1539,2.1569,2.1594,2.161,2.1635,2.1649,2.165,2.1655,2.1654,2.1656,2.1624,2.1617,2.1654,2.1654,2.1654,2.1654,2.1654,2.1654,2.1357,2.1388,2.14,2.144,2.1456,2.1485,2.1499,2.1517,2.1534,2.1569,2.159,2.1602,2.1621,2.1648,2.1671,2.1675,2.1684,2.169,2.1693,2.1662,2.1658,2.1655,2.1648,2.1691,2.1691,2.1724,2.1725,2.1725]}]]